Weather History for Fergus Falls, MN

Change the Weather History Date:

Saturday, October 22, 2011

  Actual Average Record
Temperature  
Mean Temperature 48 °F -  
Max Temperature 62 °F 53 °F 74 °F (1963)
Min Temperature 35 °F 34 °F 21 °F (1987)
Degree Days  
Heating Degree Days 16    
Moisture  
Dew Point 37 °F    
Average Humidity 71    
Maximum Humidity 100    
Minimum Humidity 39    
Precipitation  
Precipitation 0.00 in - - ()
Sea Level Pressure  
Sea Level Pressure 30.07 in    
Wind  
Wind Speed 3 mph (South)    
Max Wind Speed 16 mph    
Max Gust Speed 20 mph    
Visibility 9 miles    
Events      
Averages and records for this station are not official NWS values.
T = Trace of Precipitation, MM = Missing Value Source: NWS Daily Summary

Daily Weather History Graph

Daily Weather History Graph

Search for Another Location

Airport:

Trip Planner

Search our weather history database for the weather conditions in past years. The results will help you decide how hot, cold, wet, or windy it might be!

Date:

Astronomy

Oct. 22, 2011 Rise Set
Actual Time 7:51 AM CDT 6:26 PM CDT
Civil Twilight 7:20 AM CDT 6:56 PM CDT
Nautical Twilight 6:45 AM CDT 7:31 PM CDT
Astronomical Twilight 6:10 AM CDT 8:06 PM CDT
Moon 2:33 AM CDT (10/22) 3:58 PM CDT (10/22)
Length of Visible Light 11h 36m
Length of Day
10h 35m
Waning Crescent, 23% of the Moon is Illuminated
Oct 22
Waning Crescent
Oct 26
New
Nov 2
First Quarter
Nov 10
Full
Nov 18
Last Quarter

Hourly Weather History & Observations

Time (CDT) Temp. Windchill Dew Point Humidity Pressure Visibility Wind Dir Wind Speed Gust Speed Precip Events Conditions
12:13 AM 42.8 °F - 37.4 °F 81% 30.09 in 10.0 mi Calm Calm - N/A   Clear
12:34 AM 42.8 °F - 35.6 °F 76% 30.09 in 10.0 mi Calm Calm - N/A   Clear
12:53 AM 41.0 °F - 35.6 °F 81% 30.08 in 10.0 mi Calm Calm - N/A   Clear
1:13 AM 39.2 °F - 35.6 °F 87% 30.09 in 10.0 mi Calm Calm - N/A   Clear
1:33 AM 37.4 °F - 35.6 °F 93% 30.09 in 10.0 mi Calm Calm - N/A   Clear
1:53 AM 39.2 °F - 35.6 °F 87% 30.09 in 10.0 mi Calm Calm - N/A   Clear
2:13 AM 39.2 °F - 35.6 °F 87% 30.09 in 10.0 mi Calm Calm - N/A   Clear
2:33 AM 37.4 °F - 35.6 °F 93% 30.09 in 10.0 mi Calm Calm - N/A   Clear
2:53 AM 39.2 °F - 35.6 °F 87% 30.09 in 10.0 mi Calm Calm - N/A   Clear
3:12 AM 37.4 °F - 33.8 °F 87% 30.09 in 10.0 mi Calm Calm - N/A   Clear
3:33 AM 37.4 °F - 35.6 °F 93% 30.10 in 10.0 mi Calm Calm - N/A   Clear
3:52 AM 37.4 °F - 35.6 °F 93% 30.10 in 10.0 mi Calm Calm - N/A   Clear
4:13 AM 37.4 °F - 35.6 °F 93% 30.10 in 10.0 mi Calm Calm - N/A   Clear
4:33 AM 35.6 °F - 33.8 °F 93% 30.10 in 10.0 mi Calm Calm - N/A   Clear
4:52 AM 37.4 °F - 35.6 °F 93% 30.10 in 10.0 mi Calm Calm - N/A   Clear
5:13 AM 37.4 °F - 35.6 °F 93% 30.11 in 10.0 mi Calm Calm - N/A   Clear
5:33 AM 37.4 °F - 35.6 °F 93% 30.11 in 10.0 mi Calm Calm - N/A   Clear
5:52 AM 35.6 °F - 33.8 °F 93% 30.11 in 10.0 mi Calm Calm - N/A   Clear
6:13 AM 35.6 °F - 33.8 °F 93% 30.12 in 10.0 mi Calm Calm - N/A   Clear
6:33 AM 35.6 °F - 35.6 °F 100% 30.12 in 7.0 mi Calm Calm - N/A   Clear
6:53 AM 35.6 °F - 35.6 °F 100% 30.12 in 7.0 mi Calm Calm - N/A   Clear
7:13 AM 35.6 °F - 35.6 °F 100% 30.13 in 3.0 mi Calm Calm - N/A   Clear
7:33 AM 35.6 °F - 35.6 °F 100% 30.13 in 5.0 mi Calm Calm - N/A   Clear
7:53 AM 35.6 °F - 35.6 °F 100% 30.13 in 5.0 mi Calm Calm - N/A   Clear
8:13 AM 37.4 °F 33.8 °F 37.4 °F 100% 30.13 in 5.0 mi SE 4.6 mph - N/A   Clear
8:33 AM 37.4 °F 33.8 °F 35.6 °F 93% 30.13 in 7.0 mi SE 4.6 mph - N/A   Clear
8:53 AM 37.4 °F 33.8 °F 37.4 °F 100% 30.13 in 7.0 mi SE 4.6 mph - N/A   Clear
9:13 AM 39.2 °F - 37.4 °F 93% 30.13 in 10.0 mi Calm Calm - N/A   Clear
9:33 AM 42.8 °F - 39.2 °F 87% 30.13 in 10.0 mi Calm Calm - N/A   Clear
9:53 AM 44.6 °F 43.1 °F 39.2 °F 81% 30.13 in 10.0 mi SSE 3.5 mph - N/A   Clear
10:13 AM 48.2 °F - 41.0 °F 76% 30.13 in 10.0 mi South 3.5 mph - N/A   Clear
10:33 AM 50.0 °F - 41.0 °F 71% 30.13 in 10.0 mi SSW 5.8 mph - N/A   Clear
10:53 AM 51.8 °F - 39.2 °F 62% 30.13 in 10.0 mi SSW 8.1 mph - N/A   Clear
11:13 AM 53.6 °F - 39.2 °F 58% 30.13 in 10.0 mi SSW 6.9 mph - N/A   Clear
11:53 AM 55.4 °F - 35.6 °F 47% 30.12 in 10.0 mi SSW 11.5 mph - N/A   Clear
12:13 PM 57.2 °F - 37.4 °F 48% 30.11 in 10.0 mi SSW 12.7 mph - N/A   Clear
12:33 PM 57.2 °F - 37.4 °F 48% 30.10 in 10.0 mi South 10.4 mph - N/A   Clear
12:53 PM 59.0 °F - 37.4 °F 45% 30.09 in 10.0 mi South 11.5 mph - N/A   Clear
1:13 PM 59.0 °F - 37.4 °F 45% 30.07 in 10.0 mi South 10.4 mph - N/A   Clear
1:33 PM 60.8 °F - 37.4 °F 42% 30.06 in 10.0 mi South 15.0 mph 18.4 mph N/A   Clear
1:53 PM 60.8 °F - 37.4 °F 42% 30.05 in 10.0 mi SSW 16.1 mph 19.6 mph N/A   Clear
2:13 PM 62.6 °F - 39.2 °F 42% 30.04 in 10.0 mi South 12.7 mph 17.3 mph N/A   Clear
2:32 PM 60.8 °F - 37.4 °F 42% 30.03 in 10.0 mi South 16.1 mph - N/A   Clear
2:53 PM 62.6 °F - 39.2 °F 42% 30.02 in 10.0 mi South 16.1 mph 19.6 mph N/A   Clear
3:13 PM 62.6 °F - 37.4 °F 39% 30.02 in 10.0 mi SSW 15.0 mph - N/A   Clear
3:33 PM 62.6 °F - 37.4 °F 39% 30.01 in 10.0 mi SSW 16.1 mph - N/A   Clear
3:53 PM 62.6 °F - 37.4 °F 39% 30.00 in 10.0 mi South 12.7 mph - N/A   Clear
4:13 PM 62.6 °F - 39.2 °F 42% 30.00 in 10.0 mi SSW 12.7 mph - N/A   Clear
4:32 PM 62.6 °F - 39.2 °F 42% 29.99 in 10.0 mi South 13.8 mph - N/A   Clear
4:53 PM 62.6 °F - 37.4 °F 39% 29.98 in 10.0 mi SSW 15.0 mph 19.6 mph N/A   Clear
5:12 PM 60.8 °F - 39.2 °F 45% 29.98 in 10.0 mi South 12.7 mph - N/A   Clear
5:33 PM 59.0 °F - 39.2 °F 48% 29.97 in 10.0 mi South 11.5 mph - N/A   Clear
5:53 PM 57.2 °F - 39.2 °F 51% 29.96 in 10.0 mi South 9.2 mph - N/A   Clear
6:12 PM 57.2 °F - 39.2 °F 51% 29.95 in 10.0 mi South 8.1 mph - N/A   Clear
6:33 PM 55.4 °F - 39.2 °F 54% 29.95 in 10.0 mi SSE 8.1 mph - N/A   Scattered Clouds
6:53 PM 53.6 °F - 39.2 °F 58% 29.94 in 10.0 mi SSE 6.9 mph - N/A   Scattered Clouds
7:12 PM 51.8 °F - 39.2 °F 62% 29.94 in 10.0 mi SSE 9.2 mph - N/A   Scattered Clouds
7:33 PM 51.8 °F - 39.2 °F 62% 29.93 in 10.0 mi SSE 9.2 mph - N/A   Scattered Clouds
7:53 PM 51.8 °F - 39.2 °F 62% 29.92 in 10.0 mi SSE 9.2 mph - N/A   Mostly Cloudy
8:13 PM 53.6 °F - 39.2 °F 58% 29.92 in 10.0 mi SSE 9.2 mph - N/A   Overcast
8:33 PM 55.4 °F - 39.2 °F 54% 29.91 in 10.0 mi South 12.7 mph - N/A   Overcast
8:53 PM 53.6 °F - 39.2 °F 58% 29.90 in 10.0 mi South 10.4 mph - N/A   Mostly Cloudy
9:13 PM 53.6 °F - 39.2 °F 58% 29.90 in 10.0 mi South 9.2 mph - N/A   Mostly Cloudy
9:32 PM 53.6 °F - 39.2 °F 58% 29.90 in 10.0 mi South 9.2 mph - N/A   Overcast
9:53 PM 53.6 °F - 42.8 °F 67% 29.89 in 10.0 mi South 9.2 mph - N/A   Mostly Cloudy
10:13 PM 51.8 °F - 44.6 °F 76% 29.87 in 10.0 mi South 10.4 mph - N/A Rain Light Rain
10:33 PM 51.8 °F - 44.6 °F 76% 29.87 in 10.0 mi SSE 8.1 mph - N/A   Mostly Cloudy
10:52 PM 48.2 °F - 44.6 °F 87% 29.86 in 10.0 mi SSE 8.1 mph - N/A Thunderstorm Scattered Clouds
11:13 PM 48.2 °F - 42.8 °F 82% 29.86 in 10.0 mi South 8.1 mph - N/A   Clear
11:53 PM 48.2 °F - 42.8 °F 82% 29.84 in 10.0 mi South 6.9 mph - N/A   Clear